Вернуться в каталог

BREEZE-M DEB

TANK

АктивенHEO
NORAD 34712·DEBRIS·🇷🇺 Russia

Запущен Apr 3, 2009 с Baikonur Cosmodrome

Loading…

Ближайшие Пролёты (ближайшие 24 часа)

TLE

СвежийSource: Space-Track

Эпоха: Sep 14, 2026, 03:24 UTC

1 34712U 09016C   26257.14218580  .00001325  00000-0  53071-3 0  9994
2 34712  45.9445 160.6765 4906143 339.7740   6.1542  5.69371972348564

Отслеживайте BREEZE-M DEB в реальном времени с AllMySat

Download on the App Store